Weather in Bala-Chetyrman

Russia / Republic of Bashkortostan     53°05′23″N   55°25′55″E
temp.,
°C
wind,
m/s
gust,
m/s
humid.,
%
clouds,
%
prec.,
mm/h
press.,
hPa
HPBL,
m
28 february, sun
sun2823:00−5sse4996100 0.8 1001218
02:00−3sse4897100 1.0 1000240
05:00−1ssw5898100 2.3 999349
08:00−1ssw4798100 1.3 999299
11:00−1ssw3597100 1.9 999286
14:000wsw2399100 0.3 1000269
17:00−2wnw579696 0.7 1002367
20:00−8nw479488 0.1 1005147
1 march, mon
mon123:00−11nw339694 0.3 100879
02:00−13wnw229690 0.1 101122
05:00−14w119690 0.3 101320
08:00−15nnw1197100 0.1 101520
11:00−13nne119397 0.2 1016156
14:00−11nnw1189100 0.1 1017287
17:00−10wsw2292100 0.3 1018271
20:00−13nw3396100 0.3 102065
2 march, tue
tue223:00−18wnw229899 0.3 102020
02:00−20w239995 0.0 102020
05:00−23sw2310079 0.1 102020
08:00−24ssw459972 0.0 101968
11:00−20ssw699763 0.0 1017239
14:00−18s81296100 0.0 1015327
17:00−15s101593100 0.1 1012442
20:00−13s91693100 0.5 1010536
3 march, wed
wed323:00−10s81693100 1.0 1007515
02:00−5s81595100 0.8 1004646
05:00−4ssw81395100 2.1 1002666
08:00−4ssw61295100 0.8 1000493
11:00−3sw6994100 1.2 1000457
14:00−2wsw579199 0.1 1000609
17:00−2w5894100 0.3 1001544
20:00−4wnw4892100 0.2 1002365
4 march, thu
thu423:00−8nw3495100 0.2 100474
02:00−7wnw3495100 0.1 1005103
05:00−9wnw4695100 0.2 1006122
08:00−9wnw479599 0.3 1008161
11:00−8wnw479299 0.3 1010297
14:00−6wnw58872 0.0 1011586
17:00−9w589113 0.0 1013312
20:00−11sw5119728 0.0 1014232